Home > Time Zones > World Clock > Weather > Iran > Rasht > Past weeks

Flag for Iran Weather past 2 weeks in Rasht, Iran

Now
70 °F

Clear.


Feels Like: 70 °F
Forecast: 71 / 91 °F
Wind: No wind

Location: Rasht Airport

Current Time: May 30, 2015 at 7:18:42 AM

Latest Report: May 30, 2015 at 6:30 AM


Visibility: 4 mi

Pressure: 29.68 "Hg

Humidity: 94%

Dew point: 68 °F

Location of RashtLocation

Historic Weather in Rasht — Graph

°F

Rasht temperature yesterday

Maximum temperature yesterday: 82 °F (at 12:30 PM)
Minimum temperature yesterday: 72 °F (at 6:30 AM)
Average temperature yesterday: 79 °F

Past Weeks' High & Low Weather Summary

 TemperatureHumidityPressure
High91 °F (May 28, 4:30 PM)100% (May 16, 6:30 AM)30.09 "Hg (May 16, 6:30 AM)
Low59 °F (May 15, 6:30 AM)37% (May 25, 1:30 PM)29.56 "Hg (May 28, 5:30 PM)
Average74 °F71%29.92 "Hg
* Reported May 14 7:30 PM — May 29 8:00 PM, Rasht, Weather by CustomWeather, © 2015

Note: Actual official high and low records may vary slightly from our data, if they occured in-between our weather recording intervals... More about our weather records

Advertising

Rasht weather history for previous 24 hours

 ConditionsComfort  
Time TempWeatherWind HumidityBarometerVisibility
8:00 PM
Fri, May 29
79 °FPartly sunny.No wind65%29.68 "Hg4 mi
7:30 PM79 °FBroken clouds.No wind65%29.68 "Hg4 mi
7:00 PM79 °FThunderstorms. Broken clouds.No wind65%29.65 "Hg4 mi
6:30 PM79 °FThunderstorms. Broken clouds.9 mph65%29.65 "Hg4 mi
6:00 PM81 °FThunderstorms. Broken clouds.9 mph62%29.62 "Hg4 mi
5:30 PM81 °FBroken clouds.No wind62%29.62 "Hg4 mi
5:00 PM81 °FBroken clouds.No wind62%29.62 "Hg4 mi
4:30 PM81 °FMore clouds than sun.No wind62%29.59 "Hg4 mi
4:00 PM82 °FMore clouds than sun.5 mph58%29.62 "Hg4 mi
3:30 PM82 °FThunderstorms. More clouds than sun.5 mph58%29.62 "Hg4 mi
3:00 PM82 °FThunderstorms. More clouds than sun.5 mph58%29.62 "Hg4 mi
2:30 PM82 °FOvercast.5 mph58%29.65 "Hg4 mi
2:00 PM82 °FOvercast.No wind58%29.65 "Hg4 mi
1:30 PM82 °FOvercast.5 mph58%29.68 "Hg4 mi
1:00 PM82 °FOvercast.No wind58%29.68 "Hg4 mi
12:30 PM82 °FOvercast.5 mph58%29.68 "Hg4 mi
12:00 PM81 °FPartly sunny.5 mph62%29.68 "Hg4 mi
11:30 AM81 °FPartly sunny.7 mph62%29.68 "Hg4 mi
11:00 AM79 °FPartly sunny.5 mph70%29.68 "Hg1 mi
10:30 AM79 °FPartly sunny.5 mph70%29.68 "Hg1 mi
10:00 AM77 °FFog.7 mph89%29.65 "Hg1 mi
9:30 AM75 °FFog.7 mph94%29.65 "Hg1 mi
9:00 AM73 °FFog.No wind100%29.65 "Hg1 mi
8:30 AM73 °FFog.No wind100%29.65 "Hg1 mi
8:00 AM72 °FFog.7 mph100%29.62 "Hg1 mi
7:30 AM72 °FFog.7 mph100%29.62 "Hg1 mi
7:00 AM72 °FFog.No wind94%29.59 "Hg1 mi
Weather by CustomWeather, © 2015

See weather overviewHow to use our weather pages